When you browse on this site, cookies collect data to enhance your experience and personalize the content and advertising you see.
Visit our Privacy Policy to learn more. By continuing to use the site, you agree to this use of cookies and data.
  • In Latvia
  • List of Countries
  • For 7 days
  • Water Temperature
  • Satellite Maps
  • Weather Map
  • Weather Widgets
  • user-avatar
    Login

    Hourly Weather Alterau

    Today, 21 May, Tuesday

    Time Temperature Precipitation Wind Pressure Humidity
    00:00 +10°C° 0.9 mm 4 mps 718 mmHg 96%
    01:00 +9°C° 0 mm 5 mps 718 mmHg 97%
    02:00 +9°C° 0.4 mm 5 mps 718 mmHg 97%
    03:00 +10°C° 0.4 mm 4 mps 718 mmHg 96%
    04:00 +10°C° 0.4 mm 4 mps 718 mmHg 96%
    05:00 +10°C° 0.2 mm 4 mps 718 mmHg 95%
    06:00 +10°C° 0.2 mm 4 mps 719 mmHg 95%
    07:00 +9°C° 0.2 mm 5 mps 719 mmHg 94%
    08:00 +10°C° 0.2 mm 5 mps 719 mmHg 90%
    09:00 +12°C° 0.2 mm 5 mps 719 mmHg 86%
    10:00 +12°C° 0.2 mm 5 mps 720 mmHg 82%
    11:00 +13°C° 0.6 mm 5 mps 720 mmHg 83%
    12:00 +13°C° 0.6 mm 4 mps 720 mmHg 85%
    13:00 +13°C° 0.6 mm 4 mps 720 mmHg 86%
    14:00 +13°C° 0.9 mm 3 mps 721 mmHg 89%
    15:00 +12°C° 0.9 mm 3 mps 721 mmHg 91%
    16:00 +13°C° 0.9 mm 2 mps 721 mmHg 93%
    17:00 +13°C° 0.4 mm 2 mps 721 mmHg 94%
    18:00 +13°C° 0.4 mm 1 mps 722 mmHg 94%
    19:00 +13°C° 0.4 mm 1 mps 722 mmHg 94%
    20:00 +12°C° 0.3 mm 1 mps 722 mmHg 95%
    21:00 +12°C° 0.3 mm 1 mps 723 mmHg 95%
    22:00 +11°C° 0.3 mm 1 mps 723 mmHg 96%
    23:00 +11°C° 0.2 mm 1 mps 723 mmHg 96%

    Tomorrow, 22 May, Wednesday

    Time Temperature Precipitation Wind Pressure Humidity
    00:00 +10°C° 0.2 mm 1 mps 723 mmHg 96%
    01:00 +10°C° 0.2 mm 1 mps 723 mmHg 96%
    02:00 +10°C° 0 mm 1 mps 723 mmHg 96%
    03:00 +9°C° 0 mm 1 mps 723 mmHg 96%
    04:00 +9°C° 0 mm 1 mps 723 mmHg 96%
    05:00 +10°C° 0 mm 1 mps 723 mmHg 95%
    06:00 +10°C° 0 mm 1 mps 724 mmHg 94%
    07:00 +11°C° 0 mm 1 mps 724 mmHg 93%
    08:00 +13°C° 0 mm 1 mps 724 mmHg 83%
    09:00 +15°C° 0 mm 1 mps 724 mmHg 74%
    10:00 +18°C° 0 mm 1 mps 724 mmHg 65%
    11:00 +19°C° 0.2 mm 1 mps 724 mmHg 64%
    12:00 +20°C° 0.2 mm 1 mps 724 mmHg 64%
    13:00 +20°C° 0.2 mm 1 mps 724 mmHg 64%
    14:00 +20°C° 0.4 mm 1 mps 724 mmHg 65%
    15:00 +20°C° 0.4 mm 1 mps 724 mmHg 66%
    16:00 +19°C° 0.4 mm 1 mps 724 mmHg 67%
    17:00 +18°C° 0.4 mm 1 mps 724 mmHg 73%
    18:00 +16°C° 0.4 mm 1 mps 724 mmHg 79%
    19:00 +15°C° 0.4 mm 1 mps 724 mmHg 85%
    20:00 +14°C° 0 mm 1 mps 724 mmHg 88%
    21:00 +12°C° 0 mm 1 mps 725 mmHg 90%
    22:00 +10°C° 0 mm 1 mps 725 mmHg 93%
    23:00 +10°C° 0 mm 1 mps 725 mmHg 94%

    Day after tomorrow, 23 May, Thursday

    Time Temperature Precipitation Wind Pressure Humidity
    00:00 +9°C° 0 mm 1 mps 725 mmHg 95%
    01:00 +9°C° 0 mm 1 mps 725 mmHg 96%
    02:00 +9°C° 0 mm 1 mps 725 mmHg 96%
    03:00 +7°C° 0 mm 0 mps 725 mmHg 96%
    04:00 +7°C° 0 mm 0 mps 725 mmHg 96%
    05:00 +8°C° 0 mm 0 mps 725 mmHg 94%
    06:00 +10°C° 0 mm 0 mps 725 mmHg 92%
    07:00 +11°C° 0 mm 0 mps 725 mmHg 90%
    08:00 +14°C° 0 mm 1 mps 725 mmHg 81%
    09:00 +16°C° 0 mm 1 mps 725 mmHg 73%
    10:00 +17°C° 0 mm 2 mps 725 mmHg 64%
    11:00 +19°C° 0 mm 2 mps 725 mmHg 59%
    12:00 +20°C° 0 mm 2 mps 725 mmHg 53%
    13:00 +21°C° 0 mm 2 mps 725 mmHg 48%
    14:00 +21°C° 0 mm 2 mps 725 mmHg 48%
    15:00 +21°C° 0 mm 2 mps 724 mmHg 48%
    16:00 +21°C° 0 mm 2 mps 724 mmHg 48%
    17:00 +20°C° 0 mm 2 mps 724 mmHg 56%
    18:00 +19°C° 0 mm 2 mps 724 mmHg 65%
    19:00 +19°C° 0 mm 1 mps 724 mmHg 74%
    20:00 +16°C° 0 mm 1 mps 724 mmHg 80%
    21:00 +14°C° 0 mm 1 mps 724 mmHg 87%
    22:00 +12°C° 0 mm 1 mps 724 mmHg 94%
    23:00 +12°C° 0 mm 1 mps 724 mmHg 94%

    24 May, Friday

    Time Temperature Precipitation Wind Pressure Humidity
    00:00 +11°C° 0 mm 1 mps 724 mmHg 95%
    01:00 +10°C° 0 mm 1 mps 724 mmHg 96%
    02:00 +10°C° 0 mm 1 mps 724 mmHg 96%
    03:00 +10°C° 0 mm 1 mps 723 mmHg 96%
    04:00 +9°C° 0 mm 1 mps 723 mmHg 96%
    05:00 +10°C° 0 mm 0 mps 723 mmHg 92%
    06:00 +11°C° 0 mm 0 mps 723 mmHg 87%
    07:00 +12°C° 0 mm 0 mps 723 mmHg 83%
    08:00 +15°C° 0 mm 0 mps 723 mmHg 75%
    09:00 +17°C° 0 mm 0 mps 724 mmHg 67%
    10:00 +22°C° 0 mm 1 mps 724 mmHg 58%
    11:00 +23°C° 0 mm 1 mps 724 mmHg 54%
    12:00 +23°C° 0 mm 1 mps 723 mmHg 50%
    13:00 +24°C° 0 mm 1 mps 723 mmHg 46%
    14:00 +24°C° 0 mm 1 mps 723 mmHg 46%
    15:00 +24°C° 0 mm 2 mps 723 mmHg 47%
    16:00 +23°C° 0 mm 2 mps 722 mmHg 48%
    17:00 +21°C° 0 mm 2 mps 722 mmHg 56%
    18:00 +21°C° 0 mm 1 mps 722 mmHg 65%
    19:00 +19°C° 0 mm 1 mps 722 mmHg 73%
    20:00 +18°C° 0 mm 1 mps 722 mmHg 78%
    21:00 +15°C° 0 mm 1 mps 722 mmHg 83%
    22:00 +13°C° 0 mm 1 mps 722 mmHg 88%
    23:00 +13°C° 0 mm 1 mps 722 mmHg 89%

    25 May, Saturday

    Time Temperature Precipitation Wind Pressure Humidity
    00:00 +12°C° 0 mm 1 mps 722 mmHg 90%
    01:00 +11°C° 0 mm 0 mps 722 mmHg 91%
    02:00 +11°C° 0.1 mm 0 mps 722 mmHg 92%
    03:00 +10°C° 0.1 mm 0 mps 722 mmHg 93%
    04:00 +10°C° 0.1 mm 0 mps 722 mmHg 94%
    05:00 +11°C° 0.5 mm 0 mps 722 mmHg 93%
    06:00 +12°C° 0.5 mm 0 mps 722 mmHg 93%
    07:00 +13°C° 0.5 mm 0 mps 722 mmHg 93%
    08:00 +14°C° 0.6 mm 0 mps 723 mmHg 91%
    09:00 +16°C° 0.6 mm 1 mps 723 mmHg 89%
    10:00 +19°C° 0.6 mm 1 mps 723 mmHg 87%
    11:00 +19°C° 0.9 mm 1 mps 723 mmHg 83%
    12:00 +20°C° 0.9 mm 1 mps 723 mmHg 79%
    13:00 +21°C° 0.9 mm 1 mps 723 mmHg 75%
    14:00 +20°C° 0.8 mm 1 mps 723 mmHg 76%
    15:00 +20°C° 0.8 mm 1 mps 723 mmHg 78%
    16:00 +20°C° 0.8 mm 1 mps 723 mmHg 80%
    17:00 +19°C° 0.9 mm 1 mps 723 mmHg 83%
    18:00 +19°C° 0.9 mm 1 mps 723 mmHg 87%
    19:00 +18°C° 0.9 mm 1 mps 723 mmHg 90%
    20:00 +15°C° 0.4 mm 1 mps 723 mmHg 91%
    21:00 +13°C° 0.4 mm 0 mps 723 mmHg 92%
    22:00 +12°C° 0.4 mm 0 mps 724 mmHg 93%
    23:00 +11°C° 0 mm 0 mps 723 mmHg 94%

    26 May, Sunday

    Time Temperature Precipitation Wind Pressure Humidity
    00:00 +11°C° 0 mm 0 mps 723 mmHg 95%
    01:00 +11°C° 0 mm 1 mps 723 mmHg 95%
    02:00 +11°C° 0 mm 1 mps 723 mmHg 95%
    03:00 +11°C° 0 mm 1 mps 723 mmHg 96%
    04:00 +11°C° 0 mm 1 mps 723 mmHg 96%
    05:00 +12°C° 0 mm 1 mps 724 mmHg 95%
    06:00 +11°C° 0 mm 0 mps 724 mmHg 94%
    07:00 +12°C° 0 mm 0 mps 724 mmHg 94%
    08:00 +15°C° 0.1 mm 1 mps 724 mmHg 87%
    09:00 +16°C° 0.1 mm 1 mps 724 mmHg 80%
    10:00 +18°C° 0.1 mm 2 mps 724 mmHg 73%
    11:00 +19°C° 0.2 mm 2 mps 724 mmHg 67%
    12:00 +20°C° 0.2 mm 2 mps 724 mmHg 62%
    13:00 +21°C° 0.2 mm 3 mps 724 mmHg 56%
    14:00 +21°C° 0.4 mm 2 mps 724 mmHg 62%
    15:00 +20°C° 0.4 mm 2 mps 724 mmHg 68%
    16:00 +20°C° 0.4 mm 2 mps 724 mmHg 74%
    17:00 +20°C° 0.4 mm 1 mps 724 mmHg 78%
    18:00 +19°C° 0.4 mm 1 mps 724 mmHg 82%
    19:00 +17°C° 0.4 mm 0 mps 724 mmHg 86%
    20:00 +15°C° 0.1 mm 0 mps 724 mmHg 88%
    21:00 +13°C° 0.1 mm 0 mps 724 mmHg 90%
    22:00 +12°C° 0.1 mm 0 mps 724 mmHg 92%
    23:00 +12°C° 0 mm 0 mps 724 mmHg 93%
    Show more